Hourly Data Report for September 13, 2017

All times are specified in Local Standard Time (LST). Add 1 hour to adjust for Daylight Saving Time where and when it is observed.

KITCHENER/WATERLOO
ONTARIO

43°27'39.000" N
80°22'43.000" W
321.60 m
6144239
71368
YKF

Download Data

Hourly Data (September 2017)
Hourly Data Report for September 13, 2017
Temp Definition
°C
Dew Point Temp Definition
°C
Rel Hum Definition
%
Wind Dir Definition
10's deg

Wind Spd Definition
km/h
Visibility Definition
km
Stn Press Definition
kPa
Hmdx Definition


Wind Chill Definition


Weather Definition


TIME
00:00 Legend Double Dagger 9.9 9.8 99 35 9 8.1 97.49     Fog
01:00 Legend Double Dagger 8.5 8.4 99 32 4 1.6 97.47     Fog
02:00 Legend Double Dagger 8.5 8.4 99   0 9.7 97.46     Fog
03:00 Legend Double Dagger 7.9 7.8 99 36 4 1.0 97.43     Fog
04:00 Legend Double Dagger 7.4 7.3 99 34 8 4.0 97.38     Fog
05:00 Legend Double Dagger 7.1 7.0 99 32 4 1.0 97.41     Rain,Fog
06:00 Legend Double Dagger 7.1 7.0 99 36 8 8.1 97.40     Fog
07:00 Legend Double Dagger 9.9 9.8 99 31 5 11.3 97.42     LegendNANA
08:00 Legend Double Dagger 11.9 11.8 99   0 14.5 97.41     LegendNANA
09:00 Legend Double Dagger 16.8 14.0 83 11 5 16.1 97.39     LegendNANA
10:00 Legend Double Dagger 20.4 14.3 68 10 8 16.1 97.35     LegendNANA
11:00 Legend Double Dagger 23.1 14.5 58 16 11 16.1 97.30 27   LegendNANA
12:00 Legend Double Dagger 24.3 13.0 49 13 17 14.5 97.26 27   LegendNANA
13:00 Legend Double Dagger 25.0 13.8 49 17 5 6.4 97.20 28   Haze
14:00 Legend Double Dagger 25.4 15.5 54 LegendMM 5 9.7 97.15 30   Haze
15:00 Legend Double Dagger 25.9 16.4 55 LegendMM 4 12.9 97.10 31   LegendNANA
16:00 Legend Double Dagger 25.8 17.2 58 17 9 16.1 97.08 31   LegendNANA
17:00 Legend Double Dagger 25.3 17.9 63 16 13 16.1 97.07 31   LegendNANA
18:00 Legend Double Dagger 23.8 17.4 67 20 13 16.1 97.09 29   LegendNANA
19:00 Legend Double Dagger 21.8 17.2 75 20 11 16.1 97.14 27   LegendNANA
20:00 Legend Double Dagger 19.8 16.9 83 18 8 16.1 97.19     LegendNANA
21:00 Legend Double Dagger 18.7 16.3 86 20 8 16.1 97.20     LegendNANA
22:00 Legend Double Dagger 15.9 15.6 98   0 16.1 97.22     LegendNANA
23:00 Legend Double Dagger 14.9 14.8 99   0 1.2 97.21     Fog

Notes on Data Quality.

Legend

  • E = Estimated
  • M = Missing
  • NA = Not Available
  • ‡ = Partner data that is not subject to review by the National Climate Archives
Date modified: